This demonstration page uses our WeatherBlox Daily Observations layout. Learn more.

Left ArrowRight Arrow

38.80484, -77.04692

Hourly Observations for June 14, 2015

Temp ( °F °C ) Dew Point ( °F °C ) Humidity (%) Winds ( mph kmh ) Pressure ( in mb ) Visibility ( mi km ) Precip ( " mm )
12:48 am 00:48 Mostly Cloudy with Thunderstorms 82 28 70 21 66 66 SSW 5 7 30.03 1017 10 16 0.00 0.00
12:52 am 00:52 Mostly Cloudy with Thunderstorms 82 27.8 70 21.1 67 67 SSW 5 7 30.01 1016 10 16 0.00 0.00
1:46 am 01:46 Cloudy 82 28 70 21 66 66 NW 7 11 30.03 1017 10 16 0.00 0.00
1:52 am 01:52 Cloudy 82 27.8 70 21.1 67 67 NW 6 9 30.03 1017 10 16 0.00 0.00
2:52 am 02:52 Cloudy 81 27.2 72 22.2 74 74 ENE 3 6 30.02 1017 10 16 0.00 0.00
3:52 am 03:52 Cloudy 80 26.7 72 22.2 76 76 N 3 6 30.01 1016 9 14 0.00 0.00
4:52 am 04:52 Mostly Cloudy 80 26.7 71 21.7 74 74 Calm 30.03 1017 10 16 0.00 0.00
5:52 am 05:52 Mostly Cloudy 79 26.1 72 22.2 79 79 N 5 7 30.04 1017 10 16 0.00 0.00
6:52 am 06:52 Mostly Cloudy 80 26.7 73 22.8 79 79 NNW 6 9 30.05 1018 10 16 0.00 0.00
7:52 am 07:52 Mostly Cloudy 82 27.8 73 22.8 74 74 N 5 7 30.06 1018 10 16 0.00 0.00
8:52 am 08:52 Partly Cloudy 84 28.9 73 22.8 70 70 Calm 30.07 1018 9 14 0.00 0.00
9:52 am 09:52 Partly Cloudy 88 31.1 71 21.7 57 57 VRB 5 7 30.07 1018 10 16 0.00 0.00
10:52 am 10:52 Partly Cloudy 89 31.7 69 20.6 52 52 Calm 30.06 1018 10 16 0.00 0.00
11:52 am 11:52 Partly Cloudy 90 32.2 69 20.6 50 50 ESE 3 6 30.05 1018 10 16 0.00 0.00
12:52 pm 12:52 Mostly Cloudy 91 32.8 69 20.6 49 49 E 5 7 30.04 1017 10 16 0.00 0.00
1:52 pm 13:52 Mostly Cloudy 89 31.7 70 21.1 53 53 SSE 7 11 30.04 1017 10 16 0.00 0.00
2:52 pm 14:52 Mostly Cloudy 91 32.8 72 22.2 54 54 S 10 17 30.02 1017 10 16 0.00 0.00
3:52 pm 15:52 Mostly Cloudy 89 31.7 73 22.8 59 59 S 9 15 29.99 1016 10 16 0.00 0.00
4:50 pm 16:50 Mostly Cloudy with Thunderstorms 90 32 73 23 59 59 S 9 15 30.00 1016 10 16 0.00 0.00
4:52 pm 16:52 Mostly Cloudy with Thunderstorms 89 31.7 73 22.8 59 59 S 8 13 29.99 1016 10 16 0.00 0.00
4:57 pm 16:57 Mostly Cloudy with Strong Thunderstorms 90 32 72 22 55 55 WSW 18 30 30.00 1016 2 2 0.00 0.03
5:10 pm 17:10 Mostly Cloudy with Thunderstorms 82 28 73 23 74 74 Calm 30.00 1016 7 11 0.00 0.00
5:20 pm 17:20 Mostly Cloudy with Thunderstorms 82 28 73 23 74 74 ENE 8 13 30.00 1016 7 11 0.00 0.00
5:35 pm 17:35 Mostly Cloudy with Thunderstorms 82 28 73 23 74 74 NE 9 15 30.00 1016 7 11 0.24 6.10
5:45 pm 17:45 Cloudy with Thunderstorms 81 27 73 23 79 79 NNW 23 37 30.03 1017 7 11 0.26 6.60
5:52 pm 17:52 Cloudy with Strong Thunderstorms 79 26.1 73 22.8 82 82 NNW 21 33 30.02 1017 5 8 0.29 7.37
5:56 pm 17:56 Cloudy with Thunderstorms 79 26 73 23 84 84 N 26 43 30.00 1016 3 4 0.00 0.00
6:05 pm 18:05 Cloudy with Thunderstorms 79 26 73 23 84 84 NNW 8 13 30.03 1017 7 11 0.23 5.84
6:12 pm 18:12 Mostly Cloudy with Thunderstorms 79 26 73 23 84 84 ENE 8 13 30.00 1016 8 13 0.00 0.00
6:20 pm 18:20 Mostly Cloudy with Light Rain 79 26 75 24 89 89 ENE 6 9 30.00 1016 10 16 0.00 0.00
6:52 pm 18:52 Mostly Cloudy 81 27.2 75 23.9 82 82 Calm 30.00 1016 10 16 0.23 5.84
7:52 pm 19:52 Mostly Cloudy 82 27.8 74 23.3 77 77 Calm 30.00 1016 10 16 0.00 0.00
8:52 pm 20:52 Mostly Cloudy 82 27.8 75 23.9 79 79 E 3 6 30.00 1016 10 16 0.00 0.00
9:52 pm 21:52 Partly Cloudy 81 27.2 76 24.4 85 85 ESE 6 9 30.01 1016 10 16 0.00 0.00
10:52 pm 22:52 Partly Cloudy 81 27.2 75 23.9 82 82 SE 3 6 30.02 1017 10 16 0.00 0.00
11:52 pm 23:52 Mostly Cloudy 81 27.2 75 23.9 82 82 SE 3 6 30.02 1017 9 14 0.00 0.00

Powered by AerisWeather